Погода Объячево

Поиск расширенной информации на нашем сайте:

Полезная информация:

Новости сайта



02.01.2020
Опубликован Долгосрочный прогноз погоды по городам России и ближнего зарубежья на январь 2020 года.
Карты: Прогноз на январь и февраль 2020 года, Сравнение прогнозируемой аномалии приземной температуры воздуха на январь 2020 года по разным моделям.




Погода Объячево - сегодня

Время (UTC), дата Ветер
(°,м/с) 
Видим.   Явления Облачность Т
(°С)
Тd
(°С)
f(%) Тe
(°С)
Pmin
(гПа)
dP
(гПа)
Po
(мм)
O2
(г/м3)
Тmin Tmax R s Состояние
почвы
03 29.11.20 330 (СЗ) 4000 м  дымка  ясно 
-19.4 -21.3 85 -20  1045.9  0.6  769  335  -21.1      19  равномерный
сухой снег
100% 
06 29.11.20 190 (Ю) 4000 м  дымка  1/0 верхняя 
[Cs]
-19.5 -21.4 85 -20  1046.4  0.6  769  335           
09 29.11.20 тихо ()   2000 м  дымка  3/0 верхняя 
[Cs]
-15.4 -16.7 90 -15  1046.6  0.5  770  330           
12 29.11.20 140 (ЮВ) 4000 м  дымка  9/5 600 м средняя 
[Sc|Ac trans]
-11.8 -13.8 85 -12  1046.6  0.2  770  325           
15 29.11.20 160 (Ю) 10 км  дымка  9/3 600 м средняя 
[Sc|Ac trans]
-10.8 -12.1 90 -13  1046.6  0.1  770  324    -10.8       
18 29.11.20 170 (Ю) 10 км  дымка  9/0 средняя 
[Ac trans]
-9.3 -10.9 88 -11  1046.3  -0.2  770  322           
21 29.11.20 170 (Ю) 4000 м  дымка  10/5 300 м средняя 
[Sc|Ac As]
-7.6 -8.5 93 -9  1046.2  0.1  770  320           
00 30.11.20 160 (Ю) 4000 м  дымка  10/10 300 м 
[Sc]
-6.2 -7 94 -8  1045.4  -0.8  769  318           
03 30.11.20 160 (Ю) 4000 м  дымка  10/10 300 м 
[Sc]
-6.1 -6.5 97 -9  1045  -0.3  769  318  -11      18  равномерный
сухой снег
100% 
06 30.11.20 170 (Ю) 10 км  дымка  10/10 300 м 
[Sc]
-4.9 -5.9 93 -7  1044.8  -0.1  769  316           
09 30.11.20 160 (Ю) 10 км  дымка  10/10 300 м 
[Sc]
-3.5 -4.9 90 -6  1044  -0.7  768  314           
12 30.11.20 160 (Ю) 20000 м    10/6 300 м средняя 
[Sc|As op]
-2.8 -4.1 91 -5  1043.4  -0.5  768  313           
15 30.11.20 160 (Ю) 20000 м    8/3 600 м средняя 
[Sc|Ac As]
-2.8 -3.8 93 -5  1042.5  -0.9  767  313    -2.5       
18 30.11.20 170 (Ю) 20000 м    9/3 600 м средняя 
[Sc|Ac As]
-3.6 -5.4 87 -7  1041  -1.6  766  313           
21 30.11.20 180 (Ю) 4{10}  20000 м    9/0 средняя 
[Ac As]
-3.8 -5.6 87 -7  1040.5  -0.5  766  314           
00 01.12.20 170 (Ю) 20000 м    8/0 средняя 
[Ac As]
-5.5 -7.3 87 -8  1040.2  -0.4  765  316           
03 01.12.20 170 (Ю) 20000 м    6/0 средняя, верхняя 
[Ac trans|Ci fib]
-6.2 -8.5 84 -9  1039.5  -0.7  765  316  -6.5      17  равномерный
сухой снег
100% 
06 01.12.20 170 (Ю) 20000 м    10/0 верхняя 
[Cs]
-6.8 -9.2 83 -10  1039.8  0.2  765  317  -7         
09 01.12.20 170 (Ю) 20000 м    10/0 верхняя 
[Cs]
-5.3 -9.4 73 -9  1039.4  -0.2  765  315           
12 01.12.20 170 (Ю) 20000 м    5/0 верхняя 
[Cs]
-5.7 -9.1 77 -9  1038.9  -0.6  764  316           
15 01.12.20 180 (Ю) 20000 м    8/0 средняя, верхняя 
[Ac trans|Cs]
-6.8 -9.7 80 -10  1038.7  -0.3  764  317    -5.1       
18 01.12.20 180 (Ю) 20000 м    8/0 верхняя 
[Cs]
-7.6 -9.8 84 -9  1038.3  -0.4  764  318           
21 01.12.20 190 (Ю) 20000 м    10/0 верхняя 
[Cs]
-7.6 -10.2 82 -10  1038.6  0.2  764  318           
00 02.12.20 190 (Ю) 20000 м    9/0 средняя 
[Ac As]
-8.4 -10.7 83 -11  1038.6  764  319           
03 02.12.20 190 (Ю) 10 км  слаб. снег  10/0 средняя 
[Ac As]
-8.4 -10.7 83 -11  1038.2  -0.3  764  319  -8.7    0.0  17  равномерный
сухой снег
100% 
Время (UTC), дата Ветер
(°,м/с) 
Видим.   Явления Облачность Т
(°С)
Тd
(°С)
f(%) Тe
(°С)
Pmin
(гПа)
dP
(гПа)
Po
(мм)
O2
(г/м3)
Тmin Tmax R s Состояние
почвы

Для получения пояснительной информации подведите курсор к названию столбца.

ПОГОДА Объячево - архив

Всё, что Вы хотите узнать о погоде Объячево - удобно и подробно!

Выберите нужную дату (начиная с 1 января 2019* года) и нажмите кнопку "Найти".
Будут отображены архивные сводки погоды по пункту Объячево, начиная с указанной даты.


Отображать данные в формате CSV (для использования в таблицах Excel)


Внимание! Наш архив погоды предназначен исключительно для личного некоммерческого использования в познавательных целях. Если Вам необходимы официальные справки о состоянии погоды (для производственных, юридических, коммерческих и т.п. целей), обращайтесь в органы Росгидромета.

*Примечание: данная дата относится к архиву по метеостанциям СССР (Россия, СНГ, Балтия).
Архив по метеостанциям Зарубежной Европы и Азии (кроме Китая) хранится 10 дней, по другим регионам земного шара (Китай, Африка, Америка, Австралия, Океания) - 1 день.

Объячево - район местоположения метеостанции


Название, широта, долгота, высота метеостанции:
Объячево 60.4°ш. 49.6°д. 152 м над ур. моря [Российская Федерация]

Дополнительная информация

В oтличие oт бoльшинства пoгoдных сайтoв мы публикуем пoдрoбную метеoинфoрмацию в детальнoм прoфессиoнальнoм фoрмате.

Характеристики температуры и влажнoсти вoздуха измеряются на высoте 2 м в тени вдали oт зданий и деревьев.
Скoрoсть ветра измеряется на высoте 10 м (на урoвне рoста челoвека скoрoсть ветра ниже в 1.5-2 раза). Если метеoстанция нахoдится в гoрoде или в лесу, тo скoрoсть ветра занижена на 2-4 м/с пo сравнению с oткрытым местoм. Скoрoсть ветра над акватoриями крупных рек и oзёр, а также на вершинах хoлмoв на 2-5 м/с выше, чем в oбычных услoвиях.
Атмoсфернoе давление в разных тoчках местнoсти мoжет значительнo oтличаться oт давления на метеoстанции, в зависимoсти oт услoвий рельефа (при пoдъёме на 10 м давление пoнижается примернo на 1 мм рт.ст.).